Toccoa, GA

8:02 PM EST on January 24, 2017 (GMT -0500)
Toccoa-Letourneau

Weather History for KTOC - May, 2014

Change the Weather History Date:

Sunday, May 4, 2014

  Actual Average Record
Temperature  
Mean Temperature 70 °F -  
Max Temperature 90 °F 76 °F 90 °F (2014)
Min Temperature 51 °F 51 °F 51 °F (2014)
Cooling Degree Days 6    
Growing Degree Days 20 (Base 50)    
Moisture  
Dew Point 45 °F    
Average Humidity 43    
Maximum Humidity 90    
Minimum Humidity 15    
Precipitation  
Precipitation 0.00 in - - ()
Sea Level Pressure  
Sea Level Pressure 30.02 in    
Wind  
Wind Speed 5 mph (West)    
Max Wind Speed 15 mph    
Max Gust Speed 26 mph    
Visibility 10 miles    
Events      
Averages and records for this station are not official NWS values.
T = Trace of Precipitation, MM = Missing Value Source: NWS Daily Summary

Daily Weather History Graph

Daily Weather History Graph

Search for Another Location

Airport or City:

Trip Planner

Search our weather history database for the weather conditions in past years. The results will help you decide how hot, cold, wet, or windy it might be!

Date:

Astronomy

May. 04, 2014 Rise Set
Actual Time 6:40 AM EDT 8:20 PM EDT
Civil Twilight 6:12 AM EDT 8:47 PM EDT
Nautical Twilight 5:40 AM EDT 9:20 PM EDT
Astronomical Twilight 5:05 AM EDT 9:54 PM EDT
Moon 11:04 AM EDT (5/4) 12:23 AM EDT (5/4)
Length of Visible Light 14h 34m
Length of Day
13h 40m
Waxing Crescent, 27% of the Moon is Illuminated
May 4
Waxing Crescent
May 6
First Quarter
May 14
Full
May 21
Last Quarter
May 28
New

Hourly Weather History & Observations

Time (EDT) Temp. Dew Point Humidity Pressure Visibility Wind Dir Wind Speed Gust Speed Precip Events Conditions
12:15 AM 65.3 °F 44.8 °F 47% 30.02 in 10.0 mi West 5.8 mph - N/A   Clear
12:35 AM 64.9 °F 45.3 °F 49% 30.03 in 10.0 mi West 4.6 mph - N/A   Clear
12:55 AM 60.8 °F 47.1 °F 61% 30.03 in 10.0 mi WSW 4.6 mph - N/A   Clear
1:15 AM 59.7 °F 47.5 °F 64% 30.03 in 10.0 mi WSW 5.8 mph - N/A   Clear
1:35 AM 61.0 °F 47.1 °F 60% 30.03 in 10.0 mi WSW 4.6 mph - N/A   Clear
1:55 AM 60.4 °F 47.3 °F 62% 30.03 in 10.0 mi WSW 3.5 mph - N/A   Clear
2:15 AM 59.4 °F 47.3 °F 64% 30.03 in 10.0 mi Calm Calm - N/A   Clear
2:35 AM 58.5 °F 47.7 °F 67% 30.03 in 10.0 mi Calm Calm - N/A   Clear
2:55 AM 57.2 °F 48.2 °F 72% 30.03 in 10.0 mi Calm Calm - N/A   Clear
3:15 AM 56.7 °F 47.8 °F 72% 30.03 in 10.0 mi Calm Calm - N/A   Clear
3:35 AM 56.8 °F 47.7 °F 71% 30.03 in 10.0 mi Calm Calm - N/A   Clear
3:55 AM 55.2 °F 48.2 °F 77% 30.03 in 10.0 mi Calm Calm - N/A   Clear
4:15 AM 54.0 °F 47.7 °F 79% 30.03 in 10.0 mi Calm Calm - N/A   Clear
4:35 AM 54.3 °F 48.4 °F 80% 30.03 in 10.0 mi Calm Calm - N/A   Clear
4:55 AM 53.4 °F 48.2 °F 82% 30.03 in 10.0 mi Calm Calm - N/A   Clear
5:15 AM 51.6 °F 48.2 °F 88% 30.04 in 10.0 mi Calm Calm - N/A   Clear
5:35 AM 52.7 °F 48.2 °F 85% 30.04 in 10.0 mi West 3.5 mph - N/A   Clear
5:55 AM 51.3 °F 48.2 °F 89% 30.04 in 10.0 mi SW 4.6 mph - N/A   Clear
6:15 AM 51.4 °F 48.6 °F 90% 30.05 in 10.0 mi WSW 5.8 mph - N/A   Clear
6:35 AM 52.2 °F 49.1 °F 89% 30.05 in 10.0 mi WSW 4.6 mph - N/A   Clear
6:55 AM 54.0 °F 48.6 °F 82% 30.06 in 10.0 mi West 4.6 mph - N/A   Clear
7:15 AM 55.6 °F 48.6 °F 77% 30.07 in 10.0 mi West 5.8 mph - N/A   Clear
7:35 AM 64.8 °F 46.4 °F 51% 30.08 in 10.0 mi West 4.6 mph - N/A   Clear
7:55 AM 65.3 °F 47.3 °F 52% 30.08 in 10.0 mi West 8.1 mph - N/A   Clear
8:15 AM 67.8 °F 46.0 °F 46% 30.08 in 10.0 mi West 3.5 mph - N/A   Clear
8:35 AM 67.5 °F 47.8 °F 49% 30.08 in 10.0 mi SSW 4.6 mph - N/A   Clear
8:55 AM 67.6 °F 48.6 °F 50% 30.08 in 10.0 mi SW 3.5 mph - N/A   Clear
9:15 AM 71.4 °F 49.3 °F 45% 30.08 in 10.0 mi West 4.6 mph - N/A   Clear
9:35 AM 73.2 °F 49.5 °F 43% 30.09 in 10.0 mi WSW 8.1 mph - N/A   Clear
9:55 AM 74.8 °F 48.0 °F 39% 30.09 in 10.0 mi WSW 9.2 mph - N/A   Clear
10:15 AM 76.3 °F 46.4 °F 35% 30.08 in 10.0 mi West 9.2 mph - N/A   Clear
10:35 AM 77.4 °F 47.1 °F 34% 30.08 in 10.0 mi WNW 5.8 mph - N/A   Clear
10:55 AM 79.0 °F 47.1 °F 32% 30.08 in 10.0 mi West 4.6 mph - N/A   Clear
11:15 AM 80.6 °F 47.3 °F 31% 30.08 in 10.0 mi West 5.8 mph - N/A   Clear
11:35 AM 82.4 °F 46.0 °F 28% 30.07 in 10.0 mi West 9.2 mph - N/A   Clear
11:55 AM 83.7 °F 44.8 °F 26% 30.07 in 10.0 mi West 8.1 mph - N/A   Clear
12:35 PM 85.5 °F 41.5 °F 21% 30.06 in 10.0 mi West 8.1 mph 16.1 mph N/A   Clear
12:55 PM 86.4 °F 41.4 °F 21% 30.04 in 10.0 mi West 11.5 mph 17.3 mph N/A   Clear
1:15 PM 86.9 °F 42.1 °F 21% 30.04 in 10.0 mi WNW 10.4 mph 23.0 mph N/A   Clear
1:35 PM 87.8 °F 41.5 °F 20% 30.03 in 10.0 mi West 15.0 mph 20.7 mph N/A   Clear
1:55 PM 88.2 °F 41.0 °F 19% 30.02 in 10.0 mi West 15.0 mph 24.2 mph N/A   Clear
2:15 PM 89.1 °F 41.0 °F 19% 30.01 in 10.0 mi West 11.5 mph 20.7 mph N/A   Clear
2:35 PM 88.7 °F 40.1 °F 18% 30.01 in 10.0 mi NW 12.7 mph 26.5 mph N/A   Clear
2:55 PM 89.8 °F 40.5 °F 18% 30.00 in 10.0 mi West 12.7 mph 20.7 mph N/A   Clear
3:15 PM 90.0 °F 39.9 °F 17% 29.99 in 10.0 mi West 8.1 mph 18.4 mph N/A   Clear
3:35 PM 90.3 °F 39.0 °F 17% 29.99 in 10.0 mi NW 11.5 mph 17.3 mph N/A   Clear
3:55 PM 90.7 °F 38.8 °F 16% 29.98 in 10.0 mi WNW 10.4 mph 18.4 mph N/A   Clear
4:15 PM 90.9 °F 37.6 °F 15% 29.97 in 10.0 mi WNW 10.4 mph 20.7 mph N/A   Clear
4:35 PM 90.7 °F 37.2 °F 15% 29.96 in 10.0 mi West 10.4 mph 18.4 mph N/A   Clear
4:55 PM 90.7 °F 36.9 °F 15% 29.96 in 10.0 mi West 4.6 mph 17.3 mph N/A   Clear
5:15 PM 90.5 °F 37.4 °F 15% 29.96 in 10.0 mi West 8.1 mph 20.7 mph N/A   Clear
5:35 PM 90.7 °F 39.6 °F 17% 29.96 in 10.0 mi West 9.2 mph 16.1 mph N/A   Clear
5:55 PM 89.8 °F 38.7 °F 17% 29.96 in 10.0 mi WNW 5.8 mph 17.3 mph N/A   Clear
6:15 PM 89.2 °F 39.9 °F 18% 29.96 in 10.0 mi West 6.9 mph - N/A   Clear
6:35 PM 88.5 °F 40.3 °F 18% 29.96 in 10.0 mi West 6.9 mph - N/A   Clear
6:55 PM 87.1 °F 40.1 °F 19% 29.96 in 10.0 mi WNW 8.1 mph 16.1 mph N/A   Clear
7:15 PM 85.8 °F 41.2 °F 21% 29.96 in 10.0 mi WNW 10.4 mph - N/A   Clear
7:35 PM 85.1 °F 40.8 °F 21% 29.96 in 10.0 mi WNW 4.6 mph - N/A   Clear
7:55 PM 83.3 °F 42.8 °F 24% 29.97 in 10.0 mi West 5.8 mph - N/A   Clear
8:15 PM 80.6 °F 45.5 °F 29% 29.97 in 10.0 mi WSW 5.8 mph - N/A   Clear
8:35 PM 79.5 °F 47.1 °F 32% 29.98 in 10.0 mi WSW 5.8 mph - N/A   Clear
8:55 PM 77.2 °F 48.7 °F 37% 29.98 in 10.0 mi WSW 5.8 mph - N/A   Clear
9:15 PM 76.3 °F 49.1 °F 38% 29.98 in 10.0 mi WSW 5.8 mph - N/A   Clear
9:35 PM 74.8 °F 49.1 °F 40% 29.99 in 10.0 mi WSW 3.5 mph - N/A   Clear
9:55 PM 76.3 °F 47.8 °F 37% 30.00 in 10.0 mi West 5.8 mph - N/A   Clear
10:15 PM 75.7 °F 48.2 °F 38% 30.00 in 10.0 mi WSW 5.8 mph - N/A   Clear
10:35 PM 74.8 °F 48.6 °F 39% 30.01 in 10.0 mi WSW 5.8 mph - N/A   Clear
10:55 PM 71.2 °F 50.0 °F 47% 30.02 in 10.0 mi South 4.6 mph - N/A   Clear
11:15 PM 69.3 °F 50.7 °F 52% 30.01 in 10.0 mi SSW 4.6 mph - N/A   Clear
11:35 PM 68.0 °F 51.4 °F 55% 30.00 in 10.0 mi SSW 4.6 mph - N/A   Clear
11:55 PM 68.7 °F 50.9 °F 53% 30.01 in 10.0 mi SSW 4.6 mph - N/A   Clear